Regional Weather Roundup
Issued by NWS

Home | Current Version | Previous Version | Text Only | Print | Product List | Glossary On
Versions: 1 2 3 4 5 6 7 8 9 10 11 12 13 14 15 16 17 18 19 20 21 22 23 24 25 26 27 28 29 30 31 32 33 34 35 36 37 38 39 40 41 42 43 44 45 46 47 48 49 50
000
ASUS45 KABQ 192310
RWRNM
NEW MEXICO REGIONAL WEATHER ROUNDUP
NATIONAL WEATHER SERVICE ALBUQUERQUE NM
400 PM MST SUN FEB 19 2017

NOTE: "FAIR" MEANS FEW OR NO CLOUDS BELOW 12,000 FEET AGL WITH NO
       SIGNIFICANT WEATHER OR OBSTRUCTIONS TO VISION.

      THIS PRODUCT IS RELEASED AS TWO VERSIONS.  ONE VERSION NEAR
      THE TOP OF THE HOUR CONTAINING PRELIMINARY DATA FROM ALBUQUERQUE
      AND OTHER STATIONS.  A FINAL VERSION WITH ADDITIONAL DATA IS
      ISSUED ABOUT 10 MINUTES AFTER THE HOUR.

NMZ501-503-504-510>518-200000-
NORTHWEST PLATEAU/NORTHCENTRAL MOUNTAINS

CITY           SKY/WX    TMP DP  RH WIND       PRES   REMARKS
FARMINGTON     PTSUNNY   45  27  49 W15G28    29.83R
LOS ALAMOS     FAIR      44  21  40 SW15      29.84S
SANTA FE       PTSUNNY   45  27  49 W24G31    29.84S
TAOS             N/A     41  27  56 S10       29.82S
ANGEL FIRE     LGT SNOW  34  28  76 W22G33    29.83R WCI  23

$$
NMZ402-403-502-505>509-200000-
WESTCENTRAL MOUNTAINS/SOUTHWEST MOUNTAINS

CITY           SKY/WX    TMP DP  RH WIND       PRES   REMARKS
GALLUP         LGT RAIN  37  33  85 SW16G26   29.91R WCI  28
GRANTS         CLOUDY    44  27  49 W18G29    29.90R
SILVER CITY    FAIR      49  32  52 W15       29.94F

$$
NMZ407-409-411-412-200000-
SOUTHERN DESERTS

CITY           SKY/WX    TMP DP  RH WIND       PRES   REMARKS
DEMING         FAIR      54  33  45 W15       29.93S
LAS CRUCES     FAIR      55  31  40 W12       29.94S
HOLLOMAN AFB   FAIR      57  28  32 SW13      29.93S
ALAMOGORDO     FAIR      55  28  35 SW10G16   29.91S
T OR C         PTSUNNY   52  30  43 S10       29.87F

$$
NMZ519>523-200000-
CENTRAL VALLEYS/CENTRAL HIGHLANDS

CITY           SKY/WX    TMP DP  RH WIND       PRES   REMARKS
ALBUQUERQUE    FAIR      50  30  46 S18       29.85R
DOUBLE EAGLE   PTSUNNY   50  28  43 W8        29.85R
MORIARTY ARPT  PTSUNNY   54  25  32 W15G23    29.85S
CLINES CORNERS FAIR      48  22  35 W24G32    29.84S
BELEN          FAIR      53  26  35 SW16      29.86S
SOCORRO        FAIR      56  25  30 SW10      29.85S

$$
NMZ524>526-539-540-200000-
SOUTHCENTRAL MOUNTAINS

CITY           SKY/WX    TMP DP  RH WIND       PRES   REMARKS
RUIDOSO        FAIR      43  21  42 W14       29.92R

$$
NMZ527>531-200000-
NORTHEAST HIGHLANDS/NORTHEAST PLAINS

CITY           SKY/WX    TMP DP  RH WIND       PRES   REMARKS
LAS VEGAS      FAIR      46  20  35 W22G30    29.79R
RATON          FAIR      52  16  24 S28G35    29.69S
CLAYTON        FAIR      55  36  48 S21       29.75S

$$
NMZ532>537-200000-
EASTCENTRAL PLAINS

CITY           SKY/WX    TMP DP  RH WIND       PRES   REMARKS
TUCUMCARI      FAIR      60  28  29 SW20G25   29.77R
CANNON AFB     PTSUNNY   56  29  35 SW13      29.83R
CLOVIS AIRPORT FAIR      55  32  41 SW17G24   29.84R

$$
NMZ028-029-538-200000-
SOUTHEAST PLAINS

CITY           SKY/WX    TMP DP  RH WIND       PRES   REMARKS
ROSWELL        FAIR      63  26  24 NW10        N/A
ARTESIA        FAIR      61  27  27 SW23      29.83S
CARLSBAD       FAIR      63  24  22 W16       29.84R
HOBBS          SUNNY     59  25  27 S14       29.87R


$$




USA.gov is the U.S. government's official web portal to all federal, state and local government web resources and services.